Regional Weather Roundup
Issued by NWS Little Rock, AR

Home | Current Version | Previous Version | Text Only | Print | Product List | Glossary Off
Versions: 1 2 3 4 5 6 7 8 9 10 11 12 13 14 15 16 17 18 19 20 21 22 23 24 25 26 27 28 29 30 31 32 33 34 35 36 37 38 39 40 41 42 43 44 45 46 47 48 49 50

000
ASUS44 KLZK 281605
RWRLZK

WEATHER ROUNDUP FOR ARKANSAS
NATIONAL WEATHER SERVICE LITTLE ROCK AR
1100 AM CDT THU MAY 28 2015

NOTE: "FAIR" INDICATES FEW OR NO CLOUDS BELOW 12,000 FEET WITH NO
SIGNIFICANT WEATHER AND/OR OBSTRUCTIONS TO VISIBILITY.

ARZ001-003-010-029-281700-
NORTHWEST ARKANSAS

CITY           SKY/WX    TMP DP  RH WIND       PRES   REMARKS
FAYETTEVILLE   CLOUDY    71  67  87 S7        30.12R
FORT SMITH     LGT RAIN  71  68  90 E6        30.10R
HARRISON       CLOUDY    74  68  81 SE9       30.16R
BENTONVILLE    CLOUDY    72  66  83 SE6       30.12S
ROGERS         CLOUDY    72  68  87 SE7       30.13S
SILOAM SPGS    CLOUDY    70  63  78 SE7       30.13R
HIGHFILL       CLOUDY    72  67  84 S7        30.11S
SPRINGDALE     CLOUDY    72  68  88 SE9       30.14R
$$

ARZ004-005-016-281700-
NORTH CENTRAL ARKANSAS

CITY           SKY/WX    TMP DP  RH WIND       PRES   REMARKS
BATESVILLE     CLOUDY    73  68  83 E7        30.16R
FLIPPIN        PTSUNNY   75  70  83 E3        30.13R
MTN HOME       CLOUDY    73  69  87 S5        30.15R
$$

ARZ040-041-281700-
WEST CENTRAL ARKANSAS

CITY           SKY/WX    TMP DP  RH WIND       PRES   REMARKS
MENA           CLOUDY    79  72  78 SW5       30.15R
MOUNT IDA      PTSUNNY   80  67  64 VRB5      30.11R
$$

ARZ009-017-025-026-028-281700-
NORTHEAST ARKANSAS

CITY           SKY/WX    TMP DP  RH WIND       PRES   REMARKS
CORNING          N/A     72  68  88 SE7       30.17R
JONESBORO      CLOUDY    72  67  84 SE5       30.16R
NEWPORT        CLOUDY    74  69  84 SW7       30.18R
WALNUT RIDGE   MOSUNNY   75  66  73 SE8       30.16R
BLYTHEVILLE      N/A     71  68  90 MISG      30.17R
$$

ARZ022-023-033-042-044-281700-
CENTRAL ARKANSAS

CITY           SKY/WX    TMP DP  RH WIND       PRES   REMARKS
LITTLE ROCK    PTSUNNY   80  66  62 SE10      30.14F
N LITTLE ROCK  PTSUNNY   77  70  79 SE6       30.14F
JACKSONVILLE   MOSUNNY   79  68  69 VRB7      30.14F
SEARCY         CLOUDY    78  70  76 SE5       30.17
HOT SPRINGS    MOSUNNY   80  70  71 VRB7      30.13F
RUSSELLVILLE   CLOUDY    78  70  76 SE6       30.12S
CLINTON        PTSUNNY   77  72  83 S3        30.16R
$$

ARZ036-281700-
EAST ARKANSAS

CITY           SKY/WX    TMP DP  RH WIND       PRES   REMARKS
WEST MEMPHIS   PTSUNNY   76  70  82 VRB5      30.14S
$$

ARZ050-053-066-070-073-281700-
SOUTHWEST ARKANSAS

CITY           SKY/WX    TMP DP  RH WIND       PRES   REMARKS
ARKADELPHIA    FAIR      81  74  79 SE3       30.13S HX  86
CAMDEN         MOSUNNY   82  66  57 CALM      30.13F HX  85
TEXARKANA      MOSUNNY   81  72  74 VRB7      30.11S HX  85
EL DORADO      MOSUNNY   81  68  64 CALM      30.14S
DE QUEEN       CLOUDY    79  72  79 E8        30.12R
$$

ARZ056-057-069-281700-
SOUTHEAST ARKANSAS

CITY           SKY/WX    TMP DP  RH WIND       PRES   REMARKS
PINE BLUFF     MOSUNNY   75  68  78 VRB3      30.16R
STUTTGART      CLOUDY    72  66  83 CALM      30.17R
MONTICELLO     PTSUNNY   77  70  79 CALM      30.15R

$$




USA.gov is the U.S. government's official web portal to all federal, state and local government web resources and services.